STARLINK-11196, 60408

Orbit data source: Space-Track

STARLINK-11196, 60408 is a payload satellite owned by SpaceX/Seattle (US) in LEO that was launched on Sat, 10 Aug 2024 UTC via an FALCON 9 launch vehicle from the Air Force Eastern Test Range (AFETR). Payloads include a variety of satellites, spacecraft, and rockets equipped with specific instruments for various scientific and technological missions. These include communications satellites like Starlink; space stations such as the ISS; scientific satellites like the Hubble; Earth observation satellites from companies like Planet Labs, Umbra, and HawkEye 360; GPS; miniature CubeSats for education and research; and military/defense satellites.

Loading next visibility...
STARLINK-11196 details
Identifier
60408, 2024-141L
Orbit
LEO
Last TLE update4 hours ago
Origin
Flag of USSpaceX/Seattle (US)
ManufacturerSpaceX/Seattle
MissionOperational spacecraft
Bus & MotorSTARLINK V2M, Unknown motor
Mass730 kg wet, ~700 kg dry
Launch date (UTC)
2024-08-10 (5 months ago)
Launch vehicle
FALCON 9
Launch site
Air Force Eastern Test Range (AFETR)
Object type
Payload
Rocket body
Debris
Shape & HBRUnknown
Radar Cross SectionLarge (>1 m²)

Expand to show TLE details & history

TLE from 4 hours ago
0 STARLINK-11196
1 60408U 24141L   25015.13847424 -.00003062  00000-0 -20433-4 0  9995
2 60408  53.1596 349.6401 0001128  84.3261 275.7885 15.69702198 26000
Epoch: 2025-01-15T03:19Z
Definitive object data (Epoch: 2025-01-15T03:19:24.174Z)
Latitude-0.00005°
Longitude-175.04578°
Altitude360.588 km
Speed7.694 km/s
True Right ascension23h 18m 33s
True Declination0° 00' 00"
Sunlit
Object was in daylight at TLE epoch
Visualization TLE readout
Latitude-31.50014°
Longitude31.29808°
Altitude370.022 km
Speed7.687 km/s
Apparent Right ascension16h 07m 44s
Apparent Declination-48° 50' 30"
Sunlit
Object is in daylight
Visualization observer readout
Local Sidereal Time07:58:24
Azimuth122.303° SE
Elevation-48.859°
Doppler factor1
Orbital elements
Apogee altitude360.77 km
Perigee altitude359.25 km
Semi-major axis6,738.147 km
Eccentricity0.0001128
Inclination53.1596°
RAAN349.6401°
Arg. of periapsis84.3261°
True anomaly275.77564°
Mean anomaly275.7885°
Eccentric anomaly275.78207°
Mean motion3.92403 °/min
BSTAR-0.000020433
Orbital period91.74 mins
Loading maneuver chart data...
Loading historical data...
Loading historical data...
Loading historical data...
Loading historical data...
Loading historical data...
Loading historical data...
Loading historical data...

STARLINK-11196 Visibility forecast

Observer location: undefined°, undefined

Span
Click to sort rows by Start time (UTC) header in descending order
Start Az.
Max El. time (UTC)
Max El. Az.
Max El.
End time (UTC)
End Az.
4 mins2025-01-15 08:25:53.192Z287.948° WNW2025-01-15 08:27:53.192Z214.07° SW32.462°2025-01-15 08:29:53.192Z158.14° S
4 mins2025-01-16 00:54:53.192Z233.362° WSW2025-01-16 00:56:53.192Z26.121° NE43.486°2025-01-16 00:58:53.192Z47.71° ENE
|